TimeEDT,TemperatureF,Dew PointF,Humidity,Sea Level PressureIn,VisibilityMPH,Wind Direction,Wind SpeedMPH,Gust SpeedMPH,PrecipitationIn,Events,Conditions,WindDirDegrees,DateUTC
12:53 AM,73.9,72.0,93,30.11,9.0,Calm,Calm,-,N/A,,Clear,0,2013-06-21 04:53:00
1:53 AM,73.0,71.1,93,30.10,10.0,Calm,Calm,-,N/A,,Clear,0,2013-06-21 05:53:00
2:53 AM,73.9,71.1,91,30.09,10.0,ESE,3.5,-,N/A,,Clear,120,2013-06-21 06:53:00
3:53 AM,73.9,71.1,91,30.07,10.0,Calm,Calm,-,N/A,,Partly Cloudy,0,2013-06-21 07:53:00
4:53 AM,73.0,71.1,93,30.07,10.0,ENE,3.5,-,N/A,,Clear,60,2013-06-21 08:53:00
5:53 AM,73.0,71.1,93,30.08,10.0,NNE,3.5,-,N/A,,Clear,20,2013-06-21 09:53:00
6:53 AM,73.0,71.1,93,30.09,10.0,NE,3.5,-,N/A,,Clear,50,2013-06-21 10:53:00
7:53 AM,77.0,73.0,88,30.11,10.0,Calm,Calm,-,N/A,,Clear,0,2013-06-21 11:53:00
8:53 AM,80.1,71.1,74,30.12,10.0,Calm,Calm,-,N/A,,Clear,0,2013-06-21 12:53:00
9:53 AM,81.0,71.1,72,30.14,10.0,SSE,4.6,-,N/A,,Clear,160,2013-06-21 13:53:00
10:53 AM,82.9,71.1,67,30.14,10.0,Calm,Calm,-,N/A,,Clear,0,2013-06-21 14:53:00
11:53 AM,84.9,70.0,61,30.14,10.0,Variable,4.6,-,N/A,,Clear,0,2013-06-21 15:53:00
12:53 PM,87.1,71.1,59,30.12,10.0,Calm,Calm,-,N/A,,Clear,0,2013-06-21 16:53:00
1:53 PM,88.0,72.0,59,30.12,10.0,South,5.8,-,N/A,,Clear,170,2013-06-21 17:53:00
2:53 PM,89.1,69.1,52,30.08,10.0,SSE,3.5,-,N/A,,Clear,160,2013-06-21 18:53:00
3:53 PM,81.0,73.0,77,30.10,10.0,SW,15.0,23.0,N/A,,Clear,230,2013-06-21 19:53:00
4:53 PM,81.0,71.1,72,30.13,10.0,NE,12.7,-,N/A,,Mostly Cloudy,40,2013-06-21 20:53:00
5:53 PM,78.1,72.0,81,30.13,10.0,ESE,8.1,-,0.00,,Scattered Clouds,120,2013-06-21 21:53:00
6:53 PM,78.1,73.0,84,30.11,10.0,Calm,Calm,-,0.00,,Partly Cloudy,0,2013-06-21 22:53:00
7:53 PM,77.0,72.0,84,30.13,10.0,Calm,Calm,-,N/A,,Clear,0,2013-06-21 23:53:00
8:53 PM,77.0,73.0,88,30.12,10.0,NE,4.6,-,N/A,,Clear,40,2013-06-22 00:53:00
9:38 PM,75.2,71.6,89,30.12,10.0,NE,4.6,-,N/A,,Mostly Cloudy,50,2013-06-22 01:38:00
9:48 PM,75.2,71.6,89,30.12,10.0,NE,3.5,-,N/A,,Partly Cloudy,50,2013-06-22 01:48:00
9:53 PM,75.9,73.0,91,30.12,10.0,NE,4.6,-,N/A,,Partly Cloudy,50,2013-06-22 01:53:00
10:01 PM,75.2,71.6,89,30.12,10.0,NE,4.6,-,N/A,,Partly Cloudy,50,2013-06-22 02:01:00
10:53 PM,75.0,72.0,90,30.14,10.0,Calm,Calm,-,N/A,,Clear,0,2013-06-22 02:53:00
11:53 PM,75.9,72.0,87,30.13,10.0,SE,4.6,-,N/A,,Clear,130,2013-06-22 03:53:00